Location: Betz
(49.1556°N, 2.9558°E)
Time: 14:47:55
(UTC+00:00)

FAST - Pass Details

Date: 18 September 2019
Orbit: 346 x 3436 km, 83.0° (Epoch: 20 October)

Event Time Altitude Azimuth Distance (km) Brightness Sun altitude
Rises 19:29:43 0° 188° (S) 2,707 8.7 -15.8°
Reaches altitude 10° 19:32:07 10° 189° (S) 1,583 7.5 -16.2°
Maximum altitude 19:35:16 87° 276° (W) 379 4.4 -16.6°
Drops below altitude 10° 19:37:54 10° 8° (N) 1,320 7.5 -17.0°
Sets 19:39:44 0° 9° (N) 2,192 8.6 -17.3°
